H1 CPF 2 NER 2024 12 20 9 355 01 glonass135 H2 1600801 9135 41330 2024 12 20 0 0 0 2024 12 23 23 45 0 900 1 1 0 0 0 1 H9 10 0 60664 0.00000 0 -1970156.531 -19773057.522 16035042.818 10 0 60664 900.00000 0 -1047480.841 -17871254.698 18205631.778 10 0 60664 1800.00000 0 149553.176 -15839102.417 20023641.595 10 0 60664 2700.00000 0 1615656.445 -13742941.791 21453815.053 10 0 60664 3600.00000 0 3332788.121 -11648540.883 22468374.359 10 0 60664 4500.00000 0 5270668.126 -9618467.367 23047559.248 10 0 60664 5400.00000 0 7387809.093 -7709610.013 23180013.838 10 0 60664 6300.00000 0 9633026.910 -5970951.148 22863014.686 10 0 60664 7200.00000 0 11947369.196 -4441682.008 22102535.156 10 0 60664 8100.00000 0 14266383.661 -3149739.035 20913144.033 10 0 60664 9000.00000 0 16522633.881 -2110821.888 19317739.103 10 0 60664 9900.00000 0 18648359.216 -1327934.337 17347119.467 10 0 60664 10800.00000 0 20578169.033 -791467.498 15039403.326 10 0 60664 11700.00000 0 22251659.213 -479822.352 12439301.008 10 0 60664 12600.00000 0 23615841.409 -360545.799 9597256.133 10 0 60664 13500.00000 0 24627282.672 -391932.647 6568470.638 10 0 60664 14400.00000 0 25253864.691 -525025.948 3411832.118 10 0 60664 15300.00000 0 25476087.440 -705930.749 188764.433 10 0 60664 16200.00000 0 25287861.122 -878342.566 -3037975.552 10 0 60664 17100.00000 0 24696751.876 -986182.258 -6205530.733 10 0 60664 18000.00000 0 23723670.033 -976224.105 -9252180.707 10 0 60664 18900.00000 0 22402013.583 -800603.907 -12118557.346 10 0 60664 19800.00000 0 20776302.901 -419098.960 -14748813.921 10 0 60664 20700.00000 0 18900364.605 198918.471 -17091723.604 10 0 60664 21600.00000 0 16835141.678 1072938.447 -19101684.968 10 0 60664 22500.00000 0 14646222.761 2210247.988 -20739614.214 10 0 60664 23400.00000 0 12401195.302 3605388.999 -21973706.436 10 0 60664 24300.00000 0 10166934.281 5240163.014 -22780051.270 10 0 60664 25200.00000 0 8006940.538 7084182.956 -23143091.369 10 0 60664 26100.00000 0 5978840.130 9095948.829 -23055915.521 10 0 60664 27000.00000 0 4132148.788 11224402.204 -22520381.596 10 0 60664 27900.00000 0 2506393.917 13410894.295 -21547067.879 10 0 60664 28800.00000 0 1129671.164 15591485.110 -20155054.693 10 0 60664 29700.00000 0 17694.012 17699477.547 -18371541.405 10 0 60664 30600.00000 0 -826626.075 19668080.629 -16231306.988 10 0 60664 31500.00000 0 -1413053.634 21433090.821 -13776025.227 10 0 60664 32400.00000 0 -1763365.003 22935479.880 -11053448.333 10 0 60664 33300.00000 0 -1910175.969 24123781.723 -8116475.124 10 0 60664 34200.00000 0 -1895312.485 24956179.295 -5022122.103 10 0 60664 35100.00000 0 -1767794.582 25402205.120 -1830417.510 10 0 60664 36000.00000 0 -1581519.543 25443985.368 1396760.223 10 0 60664 36900.00000 0 -1392742.746 25076976.362 4596877.195 10 0 60664 37800.00000 0 -1257462.725 24310163.593 7707949.016 10 0 60664 38700.00000 0 -1228820.768 23165715.629 10669733.179 10 0 60664 39600.00000 0 -1354624.484 21678107.804 13424886.250 10 0 60664 40500.00000 0 -1675099.415 19892752.482 15920064.241 10 0 60664 41400.00000 0 -2220963.132 17864192.803 18106945.767 10 0 60664 42300.00000 0 -3011902.801 15653934.715 19943159.069 10 0 60664 43200.00000 0 -4055520.458 13328006.738 21393095.960 10 0 60664 44100.00000 0 -5346790.983 10954347.882 22428597.765 10 0 60664 45000.00000 0 -6868056.636 8600131.112 23029500.598 10 0 60664 45900.00000 0 -8589559.993 6329132.319 23184029.793 10 0 60664 46800.00000 0 -10470495.011 4199252.868 22889035.822 10 0 60664 47700.00000 0 -12460534.480 2260297.710 22150066.685 10 0 60664 48600.00000 0 -14501772.381 552100.644 20981274.571 10 0 60664 49500.00000 0 -16531002.214 -896925.697 19405157.406 10 0 60664 50400.00000 0 -18482237.943 -2070754.841 17452138.882 10 0 60664 51300.00000 0 -20289373.597 -2966186.074 15159993.582 10 0 60664 52200.00000 0 -21888871.064 -3592740.026 12573126.848 10 0 60664 53100.00000 0 -23222363.654 -3972014.268 9741722.097 10 0 60664 54000.00000 0 -24239065.811 -4136525.823 6720771.186 10 0 60664 54900.00000 0 -24897886.871 -4128089.328 3569006.154 10 0 60664 55800.00000 0 -25169158.627 -3995799.555 347753.141 10 0 60664 56700.00000 0 -25035902.553 -3793704.274 -2880268.723 10 0 60664 57600.00000 0 -24494581.807 -3578266.991 -6052179.165 10 0 60664 58500.00000 0 -23555305.047 -3405728.443 -9106174.063 10 0 60664 59400.00000 0 -22241472.560 -3329480.307 -11982742.639 10 0 60664 60300.00000 0 -20588879.061 -3397564.234 -14625839.401 10 0 60664 61200.00000 0 -18644310.905 -3650403.896 -16983986.642 10 0 60664 62100.00000 0 -16463697.012 -4118867.675 -19011284.963 10 0 60664 63000.00000 0 -14109891.798 -4822745.299 -20668311.464 10 0 60664 63900.00000 0 -11650183.863 -5769703.789 -21922887.799 10 0 60664 64800.00000 0 -9153635.542 -6954767.431 -22750703.245 10 0 60664 65700.00000 0 -6688365.112 -8360344.049 -23135781.134 10 0 60664 66600.00000 0 -4318885.453 -9956796.519 -23070780.262 10 0 60664 67500.00000 0 -2103610.030 -11703535.400 -22557126.300 10 0 60664 68400.00000 0 -92629.503 -13550586.588 -21604971.618 10 0 60664 69300.00000 0 1674149.471 -15440567.983 -20232985.216 10 0 60664 70200.00000 0 3168427.283 -17310992.150 -18467977.737 10 0 60664 71100.00000 0 4374438.915 -19096798.444 -16344369.554 10 0 60664 72000.00000 0 5289349.486 -20733008.598 -13903512.887 10 0 60664 72900.00000 0 5923103.698 -22157394.855 -11192881.588 10 0 60664 73800.00000 0 6297737.857 -23313049.300 -8265144.620 10 0 60664 74700.00000 0 6446185.514 -24150747.382 -5177141.486 10 0 60664 75600.00000 0 6410628.836 -24631007.287 -1988779.575 10 0 60664 76500.00000 0 6240466.545 -24725759.677 1238125.202 10 0 60664 77400.00000 0 5989985.085 -24419558.620 4441042.071 10 0 60664 78300.00000 0 5715831.765 -23710283.667 7557930.489 10 0 60664 79200.00000 0 5474396.646 -22609304.261 10528433.753 10 0 60664 80100.00000 0 5319213.428 -21141099.896 13295038.528 10 0 60664 81000.00000 0 5298488.567 -19342351.951 15804178.586 10 0 60664 81900.00000 0 5452862.325 -17260544.776 18007262.304 10 0 60664 82800.00000 0 5813495.685 -14952133.758 19861604.880 10 0 60664 83700.00000 0 6400563.445 -12480355.699 21331248.256 10 0 60664 84600.00000 0 7222217.125 -9912771.331 22387653.672 10 0 60664 85500.00000 0 8274061.813 -7318640.757 23010254.118 10 0 60665 0.00000 0 9539169.953 -4766239.528 23186856.352 10 0 60665 900.00000 0 10988633.777 -2320224.007 22913884.722 10 0 60665 1800.00000 0 12582633.430 -39157.522 22196461.506 10 0 60665 2700.00000 0 14271980.465 2026705.491 21048321.761 10 0 60665 3600.00000 0 16000072.580 3837282.565 19491562.796 10 0 60665 4500.00000 0 17705180.406 5364097.666 17556231.936 10 0 60665 5400.00000 0 19322971.993 6591227.104 15279758.992 10 0 60665 6300.00000 0 20789170.303 7515717.255 12706242.929 10 0 60665 7200.00000 0 22042232.633 8147456.311 9885605.326 10 0 60665 8100.00000 0 23025939.231 8508505.226 6872626.063 10 0 60665 9000.00000 0 23691781.529 8631915.886 3725879.459 10 0 60665 9900.00000 0 24001048.168 8560086.481 506591.530 10 0 60665 10800.00000 0 23926519.424 8342724.013 -2722558.926 10 0 60665 11700.00000 0 23453696.932 8034500.952 -5898671.183 10 0 60665 12600.00000 0 22581515.246 7692506.482 -8959860.141 10 0 60665 13500.00000 0 21322503.941 7373601.762 -11846475.041 10 0 60665 14400.00000 0 19702392.396 7131792.929 -14502274.178 10 0 60665 15300.00000 0 17759173.400 7015734.815 -16875531.309 10 0 60665 16200.00000 0 15541664.843 7066472.621 -18920051.206 10 0 60665 17100.00000 0 13107630.096 7315518.454 -20596073.815 10 0 60665 18000.00000 0 10521536.457 7783344.993 -21871049.092 10 0 60665 18900.00000 0 7852046.063 8478360.551 -22720267.518 10 0 60665 19800.00000 0 5169344.679 9396409.013 -23127334.463 10 0 60665 20700.00000 0 2542420.209 10520815.657 -23084479.839 10 0 60665 21600.00000 0 36404.417 11822976.668 -22592697.935 10 0 60665 22500.00000 0 -2289911.885 13263467.108 -21661715.650 10 0 60665 23400.00000 0 -4386287.529 14793620.331 -20309790.692 10 0 60665 24300.00000 0 -6212872.969 16357512.075 -18563344.558 10 0 60665 25200.00000 0 -7741610.597 17894265.646 -16456438.134 10 0 60665 26100.00000 0 -8957137.054 19340581.260 -14030100.738 10 0 60665 27000.00000 0 -9857152.236 20633383.440 -11331526.098 10 0 60665 27900.00000 0 -10452241.929 21712475.572 -8413151.191 10 0 60665 28800.00000 0 -10765163.811 22523090.574 -5331636.052 10 0 60665 29700.00000 0 -10829628.902 23018231.132 -2146764.481 10 0 60665 30600.00000 0 -10688631.401 23160701.893 1079713.070 10 0 60665 31500.00000 0 -10392398.526 22924748.931 4285272.046 10 0 60665 32400.00000 0 -9996047.583 22297238.289 7407818.926 10 0 60665 33300.00000 0 -9557049.394 21278324.619 10386886.009 10 0 60665 34200.00000 0 -9132605.022 19881582.107 13164793.206 10 0 60665 35100.00000 0 -8777046.053 18133592.176 15687755.112 10 0 60665 36000.00000 0 -8539367.442 16073004.758 17906912.761 10 0 60665 36900.00000 0 -8460996.275 13749111.596 19779271.014 10 0 60665 37800.00000 0 -8573889.838 11219989.949 21268524.381 10 0 60665 38700.00000 0 -8899042.791 8550292.556 22345756.160 10 0 60665 39600.00000 0 -9445466.260 5808774.178 22989998.010 10 0 60665 40500.00000 0 -10209682.313 3065655.752 23188639.495 10 0 60665 41400.00000 0 -11175756.093 389933.872 22937679.705 10 0 60665 42300.00000 0 -12315865.683 -2153254.236 22241815.701 10 0 60665 43200.00000 0 -13591387.606 -4505102.161 21114365.287 10 0 60665 44100.00000 0 -14954454.390 -6615340.500 19577024.473 10 0 60665 45000.00000 0 -16349920.733 -8444086.587 17659462.962 10 0 60665 45900.00000 0 -17717657.465 -9963261.003 15398763.978 10 0 60665 46800.00000 0 -18995078.219 -11157511.715 12838717.795 10 0 60665 47700.00000 0 -20119793.323 -12024606.928 10028981.394 10 0 60665 48600.00000 0 -21032279.358 -12575279.917 7024119.574 10 0 60665 49500.00000 0 -21678451.431 -12832532.118 3882545.556 10 0 60665 50400.00000 0 -22012028.651 -12830423.789 665381.683 10 0 60665 51300.00000 0 -21996591.537 -12612403.503 -2564737.210 10 0 60665 52200.00000 0 -21607242.800 -12229247.707 -5744893.601 10 0 60665 53100.00000 0 -20831799.589 -11736698.445 -8813125.022 10 0 60665 54000.00000 0 -19671465.271 -11192900.560 -11709644.236 10 0 60665 54900.00000 0 -18140951.002 -10655748.396 -14378016.625 10 0 60665 55800.00000 0 -16268041.017 -10180255.921 -16766270.462 10 0 60665 56700.00000 0 -14092619.351 -9816063.136 -18827917.360 10 0 60665 57600.00000 0 -11665198.725 -9605185.511 -20522862.321 10 0 60665 58500.00000 0 -9045013.477 -9580102.592 -21818185.263 10 0 60665 59400.00000 0 -6297756.716 -9762267.064 -22688778.923 10 0 60665 60300.00000 0 -3493056.728 -10161097.379 -23117831.122 10 0 60665 61200.00000 0 -701798.252 -10773496.211 -23097142.699 10 0 60665 62100.00000 0 2006599.580 -11583914.563 -22627275.804 10 0 60665 63000.00000 0 4566835.586 -12564958.137 -21717530.630 10 0 60665 63900.00000 0 6920199.325 -13678509.703 -20385751.952 10 0 60665 64800.00000 0 9016762.531 -14877319.522 -18657970.137 10 0 60665 65700.00000 0 10817199.437 -16106996.331 -16567884.313 10 0 60665 66600.00000 0 12294161.972 -17308314.671 -14156198.380 10 0 60665 67500.00000 0 13433154.597 -18419741.320 -11469823.211 10 0 60665 68400.00000 0 14232874.514 -19380074.538 -8560960.871 10 0 60665 69300.00000 0 14705005.300 -20131085.283 -5486088.873 10 0 60665 70200.00000 0 14873474.783 -20620049.673 -2304864.289 10 0 60665 71100.00000 0 14773210.222 -20802066.633 921031.047 10 0 60665 72000.00000 0 14448444.643 -20642063.800 4129081.888 10 0 60665 72900.00000 0 13950646.694 -20116407.857 7257144.681 10 0 60665 73800.00000 0 13336161.815 -19214052.057 10244643.442 10 0 60665 74700.00000 0 12663664.233 -17937172.923 13033733.767 10 0 60665 75600.00000 0 11991526.919 -16301269.366 15570413.172 10 0 60665 76500.00000 0 11375219.689 -14334719.605 17805557.090 10 0 60665 77400.00000 0 10864844.321 -12077813.609 19695861.388 10 0 60665 78300.00000 0 10502909.621 -9581300.271 21204674.113 10 0 60665 79200.00000 0 10322439.399 -6904508.301 22302701.210 10 0 60665 80100.00000 0 10345492.475 -4113117.315 22968573.224 10 0 60665 81000.00000 0 10582156.931 -1276669.849 23189262.400 10 0 60665 81900.00000 0 11030061.253 1534074.337 22960342.181 10 0 60665 82800.00000 0 11674423.798 4249833.578 22286083.667 10 0 60665 83700.00000 0 12488639.793 6805438.946 21179386.472 10 0 60665 84600.00000 0 13435382.783 9142300.034 19661544.166 10 0 60665 85500.00000 0 14468175.942 11210600.149 17761847.506 10 0 60666 0.00000 0 15533368.705 12971129.833 15517031.852 10 0 60666 900.00000 0 16572437.492 14396683.199 12970576.717 10 0 60666 1800.00000 0 17524513.107 15472956.212 10171872.834 10 0 60666 2700.00000 0 18329030.578 16198912.069 7175267.889 10 0 60666 3600.00000 0 18928387.968 16586595.553 4039011.808 10 0 60666 4500.00000 0 19270501.656 16660404.884 824120.909 10 0 60666 5400.00000 0 19311148.690 16455851.640 -2406816.408 10 0 60666 6300.00000 0 19015995.593 16017861.380 -5590868.332 10 0 60666 7200.00000 0 18362225.970 15398687.510 -8665997.507 10 0 60666 8100.00000 0 17339696.362 14655527.687 -11572282.602 10 0 60666 9000.00000 0 15951569.832 13847944.901 -14253098.315 10 0 60666 9900.00000 0 14214399.232 13035203.813 -16656229.466 10 0 60666 10800.00000 0 12157655.656 12273636.479 -18734896.355 10 0 60666 11700.00000 0 9822721.331 11614150.077 -20448670.696 10 0 60666 12600.00000 0 7261389.024 11099982.932 -21764263.861 10 0 60666 13500.00000 0 4533930.910 10764804.137 -22656172.178 10 0 60666 14400.00000 0 1706817.852 10631237.069 -23107167.091 10 0 60666 15300.00000 0 -1149815.377 10709868.768 -23108621.326 10 0 60666 16200.00000 0 -3964853.133 10998786.224 -22660665.601 10 0 60666 17100.00000 0 -6668918.579 11483658.203 -21772173.768 10 0 60666 18000.00000 0 -9197017.160 12138358.086 -20460577.651 10 0 60666 18900.00000 0 -11490994.714 12926100.368 -18751516.045 10 0 60666 19800.00000 0 -13501709.076 13801042.028 -16678325.455 10 0 60666 20700.00000 0 -15190826.269 14710280.449 -14281383.095 10 0 60666 21600.00000 0 -16532168.256 15596163.186 -11607315.369 10 0 60666 22500.00000 0 -17512558.058 16398811.922 -8708087.521 10 0 60666 23400.00000 0 -18132129.037 17058754.209 -5639992.389 10 0 60666 24300.00000 0 -18404087.499 17519552.210 -2462557.965 10 0 60666 25200.00000 0 -18353940.533 17730318.023 762605.042 10 0 60666 26100.00000 0 -18018223.117 17648010.002 3972993.347 10 0 60666 27000.00000 0 -17442779.267 17239413.851 7106416.124 10 0 60666 27900.00000 0 -16680670.330 16482725.461 10102191.963 10 0 60666 28800.00000 0 -15789798.795 15368669.162 12902315.054 10 0 60666 29700.00000 0 -14830347.511 13901104.344 15452568.732 10 0 60666 30600.00000 0 -13862141.592 12097094.627 17703565.674 10 0 60666 31500.00000 0 -12942043.217 9986435.884 19611695.469 10 0 60666 32400.00000 0 -12121487.933 7610661.666 21139962.213 10 0 60666 33300.00000 0 -11444265.086 5021565.954 22258696.741 10 0 60666 34200.00000 0 -10944634.820 2279302.936 22946130.404 10 0 60666 35100.00000 0 -10645860.206 -549859.181 23188819.679 10 0 60666 36000.00000 0 -10559215.994 -3396039.126 22981913.473 10 0 60666 36900.00000 0 -10683515.899 -6188396.378 22329257.593 10 0 60666 37800.00000 0 -11005178.975 -8857829.499 21243333.635 10 0 60666 38700.00000 0 -11498833.383 -11339608.366 19745032.402 10 0 60666 39600.00000 0 -12128433.469 -13575831.895 17863264.867 10 0 60666 40500.00000 0 -12848844.527 -15517609.604 15634416.761 10 0 60666 41400.00000 0 -13607829.799 -17126876.241 13101655.849 10 0 60666 42300.00000 0 -14348356.896 -18377763.462 10314104.027 10 0 60666 43200.00000 0 -15011126.846 -19257470.759 7325889.305 10 0 60666 44100.00000 0 -15537218.955 -19766598.550 4195095.450 10 0 60666 45000.00000 0 -15870739.051 -19918928.954 982629.657 10 0 60666 45900.00000 0 -15961357.997 -19740663.189 -2248969.379 10 0 60666 46800.00000 0 -15766631.524 -19269147.764 -5436758.955 10 0 60666 47700.00000 0 -15254001.373 -18551143.616 -8518630.312 10 0 60666 48600.00000 0 -14402391.197 -17640712.101 -11434531.515 10 0 60666 49500.00000 0 -13203327.908 -16596808.248 -14127650.019 10 0 60666 50400.00000 0 -11661539.486 -15480684.311 -16545530.481 10 0 60666 51300.00000 0 -9795002.758 -14353214.683 -18641104.923 10 0 60666 52200.00000 0 -7634438.176 -13272256.412 -20373614.434 10 0 60666 53100.00000 0 -5222272.321 -12290157.707 -21709404.043 10 0 60666 54000.00000 0 -2611111.392 -11451520.154 -22622575.314 10 0 60666 54900.00000 0 138210.415 -10791309.087 -23095484.378 10 0 60666 55800.00000 0 2958925.957 -10333391.401 -23119076.330 10 0 60666 56700.00000 0 5780877.744 -10089561.607 -22693050.373 10 0 60666 57600.00000 0 8533202.189 -10059095.975 -21825853.450 10 0 60666 58500.00000 0 11147043.916 -10228852.217 -20534503.410 10 0 60666 59400.00000 0 13558187.717 -10573909.023 -18844246.058 10 0 60666 60300.00000 0 15709499.466 -11058717.116 -16788053.483 10 0 60666 61200.00000 0 17553075.528 -11638712.063 -14405974.050 10 0 60666 62100.00000 0 19052012.599 -12262319.850 -11744347.163 10 0 60666 63000.00000 0 20181725.906 -12873269.907 -8854898.375 10 0 60666 63900.00000 0 20930762.573 -13413117.592 -5793732.662 10 0 60666 64800.00000 0 21301078.096 -13823869.575 -2620245.513 10 0 60666 65700.00000 0 21307766.194 -14050601.444 604027.061 10 0 60666 66600.00000 0 20978255.021 -14043957.383 3816597.335 10 0 60666 67500.00000 0 20351004.819 -13762426.881 6955230.708 10 0 60666 68400.00000 0 19473762.678 -13174302.863 9959143.617 10 0 60666 69300.00000 0 18401448.216 -12259239.052 12770171.797 10 0 60666 70200.00000 0 17193759.121 -11009341.054 15333886.967 10 0 60666 71100.00000 0 15912596.774 -9429745.065 17600641.165 10 0 60666 72000.00000 0 14619419.378 -7538659.234 19526519.374 10 0 60666 72900.00000 0 13372632.758 -5366864.863 21074182.961 10 0 60666 73800.00000 0 12225127.240 -2956696.764 22213588.438 10 0 60666 74700.00000 0 11222062.874 -360543.460 22922568.332 10 0 60666 75600.00000 0 10398994.992 2361072.401 23187263.327 10 0 60666 76500.00000 0 9780418.076 5141755.831 23002397.405 10 0 60666 77400.00000 0 9378788.756 7911751.622 22371390.342 10 0 60666 78300.00000 0 9194069.102 10600604.474 21306304.681 10 0 60666 79200.00000 0 9213809.904 13139858.280 19827627.127 10 0 60666 80100.00000 0 9413771.296 15465683.609 17963887.304 10 0 60666 81000.00000 0 9759055.654 17521324.783 15751119.749 10 0 60666 81900.00000 0 10205706.083 19259264.906 13232178.087 10 0 60666 82800.00000 0 10702703.989 20643018.241 10455913.399 10 0 60666 83700.00000 0 11194281.981 21648474.498 7476231.672 10 0 60666 84600.00000 0 11622454.461 22264738.004 4351048.023 10 0 60666 85500.00000 0 11929658.467 22494425.800 1141157.912 10 0 60667 0.00000 0 12061392.055 22353411.524 -2090952.050 10 0 60667 900.00000 0 11968737.147 21870025.434 -5282331.524 10 0 60667 1800.00000 0 11610658.135 21083744.572 -8370802.628 10 0 60667 2700.00000 0 10955977.250 20043428.509 -11296185.251 10 0 60667 3600.00000 0 9984940.959 18805176.058 -14001481.824 10 0 60667 4500.00000 0 8690309.457 17429894.479 -16433998.818 10 0 60667 5400.00000 0 7077921.738 15980684.995 -18546381.716 10 0 60667 6300.00000 0 5166711.166 14520156.103 -20297542.499 10 0 60667 7200.00000 0 2988170.117 13107778.940 -21653461.153 10 0 60667 8100.00000 0 585285.645 11797396.820 -22587845.600 10 0 60667 9000.00000 0 -1989009.425 10634993.970 -23082637.568 10 0 60667 9900.00000 0 -4673805.163 9656817.093 -23128355.193 10 0 60667 10800.00000 0 -7402520.686 8887927.980 -22724266.561 10 0 60667 11700.00000 0 -10105451.554 8341246.788 -21878391.753 10 0 60667 12600.00000 0 -12712452.347 8017124.703 -20607334.314 10 0 60667 13500.00000 0 -15155642.992 7903462.179 -18935946.323 10 0 60667 14400.00000 0 -17372026.734 7976366.015 -16896834.323 10 0 60667 15300.00000 0 -19305911.565 8201315.871 -14529716.359 10 0 60667 16200.00000 0 -20911035.335 8534789.604 -11880643.084 10 0 60667 17100.00000 0 -22152307.320 8926277.679 -9001098.386 10 0 60667 18000.00000 0 -23007095.095 9320600.799 -5946997.248 10 0 60667 18900.00000 0 -23466004.593 9660432.431 -2777600.398 10 0 60667 19800.00000 0 -23533122.371 9888919.505 445633.204 10 0 60667 20700.00000 0 -23225711.485 9952290.704 3660233.846 10 0 60667 21600.00000 0 -22573375.044 9802342.486 6803925.701 10 0 60667 22500.00000 0 -21616723.521 9398698.248 9815825.690 10 0 60667 23400.00000 0 -20405602.377 8710745.681 12637613.776 10 0 60667 24300.00000 0 -18996954.529 7719170.863 15214652.759 10 0 60667 25200.00000 0 -17452407.111 6417024.405 17497036.678 10 0 60667 26100.00000 0 -15835683.083 4810274.407 19440548.411 10 0 60667 27000.00000 0 -14209945.248 2917822.128 21007508.872 10 0 60667 27900.00000 0 -12635182.769 770978.341 22167502.248 10 0 60667 28800.00000 0 -11165748.417 -1587579.471 22897963.895 10 0 60667 29700.00000 0 -9848148.477 -4105327.661 23184619.977 10 0 60667 30600.00000 0 -8719176.815 -6721833.652 23021770.431 10 0 60667 31500.00000 0 -7804470.583 -9371031.519 22412409.470 10 0 60667 32400.00000 0 -7117547.694 -11983743.472 21368180.638 10 0 60667 33300.00000 0 -6659366.491 -14490344.280 19909166.204 10 0 60667 34200.00000 0 -6418426.450 -16823459.264 18063513.691 10 0 60667 35100.00000 0 -6371406.342 -18920584.495 15866905.296 10 0 60667 36000.00000 0 -6484313.722 -20726520.442 13361878.999 10 0 60667 36900.00000 0 -6714098.043 -22195517.351 10597013.212 10 0 60667 37800.00000 0 -7010659.812 -23293042.157 7625989.760 10 0 60667 38700.00000 0 -7319171.077 -23997092.098 4506552.712 10 0 60667 39600.00000 0 -7582608.781 -24298998.932 1299383.193 10 0 60667 40500.00000 0 -7744393.012 -24203689.053 -1933087.646 10 0 60667 41400.00000 0 -7751017.114 -23729387.867 -5127903.601 10 0 60667 42300.00000 0 -7554556.647 -22906780.432 -8222821.329 10 0 60667 43200.00000 0 -7114949.047 -21777663.844 -11157535.707 10 0 60667 44100.00000 0 -6401945.506 -20393148.536 -13874867.344 10 0 60667 45000.00000 0 -5396650.607 -18811485.192 -16321887.680 10 0 60667 45900.00000 0 -4092582.971 -17095609.847 -18450958.661 10 0 60667 46800.00000 0 -2496210.766 -15310511.707 -20220665.901 10 0 60667 47700.00000 0 -626938.487 -13520535.521 -21596626.728 10 0 60667 48600.00000 0 1483455.122 -11786732.704 -22552157.354 10 0 60667 49500.00000 0 3791904.823 -10164372.895 -23068786.544 10 0 60667 50400.00000 0 6245626.836 -8700720.345 -23136606.414 10 0 60667 51300.00000 0 8784101.408 -7433167.811 -22754454.371 10 0 60667 52200.00000 0 11341387.161 -6387805.105 -21929923.614 10 0 60667 53100.00000 0 13848670.578 -5578480.805 -20679202.937 10 0 60667 54000.00000 0 16236944.486 -5006394.637 -19026749.833 10 0 60667 54900.00000 0 18439704.206 -4660235.564 -17004804.036 10 0 60667 55800.00000 0 20395549.508 -4516857.764 -14652751.584 10 0 60667 56700.00000 0 22050584.694 -4542464.074 -12016352.251 10 0 60667 57600.00000 0 23360517.729 -4694245.403 -9146845.702 10 0 60667 58500.00000 0 24292371.952 -4922405.636 -6099953.957 10 0 60667 59400.00000 0 24825740.241 -5172485.651 -2934799.670 10 0 60667 60300.00000 0 24953530.580 -5387887.730 287238.807 10 0 60667 61200.00000 0 24682173.140 -5512493.550 3503713.444 10 0 60667 62100.00000 0 24031281.460 -5493265.230 6652310.839 10 0 60667 63000.00000 0 23032782.846 -5282719.850 9672051.885 10 0 60667 63900.00000 0 21729555.061 -4841173.324 12504464.014 10 0 60667 64800.00000 0 20173626.713 -4138659.276 15094703.984 10 0 60667 65700.00000 0 18424016.500 -3156442.154 17392610.325 10 0 60667 66600.00000 0 16544301.283 -1888060.707 19353665.875 10 0 60667 67500.00000 0 14600013.784 -339857.380 20939852.745 10 0 60667 68400.00000 0 12655977.609 1469029.686 22120384.016 10 0 60667 69300.00000 0 10773689.641 3507213.183 22872298.683 10 0 60667 70200.00000 0 9008857.846 5732120.809 23180908.787 10 0 60667 71100.00000 0 7409196.094 8091534.864 23040090.202 10 0 60667 72000.00000 0 6012567.169 10525545.394 22452411.155 10 0 60667 72900.00000 0 4845550.823 12968837.824 21429095.367 10 0 60667 73800.00000 0 3922496.471 15353221.911 19989819.466 10 0 60667 74700.00000 0 3245100.161 17610298.338 18162347.324 10 0 60667 75600.00000 0 2802523.827 19674153.058 15982006.945 10 0 60667 76500.00000 0 2572052.265 21483967.631 13491018.533 10 0 60667 77400.00000 0 2520260.684 22986436.551 10737685.476 10 0 60667 78300.00000 0 2604644.001 24137890.018 7775462.874 10 0 60667 79200.00000 0 2775639.271 24906032.344 4661921.020 10 0 60667 80100.00000 0 2978955.511 25271221.915 1457623.842 10 0 60667 81000.00000 0 3158111.716 25227237.764 -1775055.587 10 0 60667 81900.00000 0 3257074.467 24781499.416 -4973158.701 10 0 60667 82800.00000 0 3222881.921 23954729.945 -8074379.227 10 0 60667 83700.00000 0 3008141.243 22780076.018 -11018289.690 10 0 60667 84600.00000 0 2573291.774 21301721.971 -13747531.299 10 0 60667 85500.00000 0 1888536.248 19573056.743 -16208942.625 99